sat.trackr.live / text

‹ back to catalog

STARLINK-34171

NORAD 64082 · 2025-107U

PAYLOAD ACTIVE UNKNOWN

§ Identity

Operator
Country
US
Launch date
2025-05-21
Launch site
AFETR
Launch vehicle
Mass (kg)
RCS (m²)

Purposes: comms

External: N2YO · Heavens-Above · Gunter

§ Orbital elements

Epoch: 2026-09-20T11:17:39.510816Z

Period
94.27 min
Inclination
42.9979°
Eccentricity
0.0001771
Mean motion
15.27590962 rev/d
Perigee alt
481.8 km
Apogee alt
484.2 km
Semi-major
6,861.2 km
B*
4.5569e-4
RAAN
181.1769°
Arg perigee
274.5130°
Mean anomaly
85.5519°
Rev number
7,591

§ Raw data

STARLINK-341711 64082U 25107U   26263.47059619  .00012303  00000+0  45569-3 0  99952 64082  42.9979 181.1769 0001771 274.5130  85.5519 15.27590962 75914

JSON: /api/v1/satellites/64082 · /tle

For live sub-satellite position, see the globe view (requires WebGL).

§ Visibility from observer

Set your observer location to see the next 7 days of passes ≥ 10°. The values pass through the URL so the page stays shareable.

No JS? Fill the form by hand. The geolocation button needs JavaScript.